A-1 (ASTERIX)

Satellite information

Favourite Embed

Satellite Type and Status

PAYLOADIN ORBIT

Key statistics

Satellite A-1 (ASTERIX) at a glance.

Uptime

21834

Days in orbit

Revolutions

≈ 13.5

Per day

Orbit

LEO

Low Earth Orbit

Inclination

34.3

Latest

Satellite identification and parameters

Extended collection of information and parameters for A-1 (ASTERIX).

Object identification

Identified? True

Debris? False

Object name: A-1 (ASTERIX)

International designator: 1965-096A

Object number (NORAD): 1778

Object ID (CCSDS): 1778

Country: FRANCE (FR)

Current information (Y/N): Y

RCS size: MEDIUM

Orbital parameters

Period: 106.715 minutes

Inclination: 34.2561 deg

SMA: 7452.632 km

Apoapsis: 1626.635 km

Periapsis: 522.359 km

RAAN: 174.0279 deg

Eccentricy: 0.07408633

Argument of periapsis: 344.8691 deg

Mean anomaly: 13.0857 deg

Mean motion: 13.49392414 rev/day

Mean motion (dot): 0.00001504 rev/day2

B* drag term: 0.00040259666 1/REarth

Two-line elements (TLE)

Creation date: Sept. 5, 2025, 10:27 a.m.

Reference frame: TEME

Reference center: EARTH

Epoch: Sept. 5, 2025, 2:06 a.m. UTC

TLE line 0: 0 A-1 (ASTERIX)

TLE line 1: 1 01778U 65096A 25248.08816621 .00001504 00000-0 40260-3 0 9997

TLE line 2: 2 01778 34.2561 174.0279 0740863 344.8691 13.0857 13.49392414926257

Live tracking on map

Real-time ground track for satellite A-1 (ASTERIX).

In-orbit conjunctions

A list of the most updated potential collisions computed for object A-1 (ASTERIX).

Target Orbit TCA Probability of collision Miss distance Type
FENGYUN 1C DEB SSO 2025-06-26 01:50:39 0.000229867 128.0 (m) DEBRIS

Associated space launch

First french satellite

A-1 (ASTERIX) was lifted into orbit during the mission ‘Diamant A | Asterix’, on board a Diamant A space rocket.

The launch took place on Nov. 26, 1965, 2:47 p.m. from Brigitte.

For more information about the launch, click the button.

Launch to space Diamant A | Asterix
Diamant A | Asterix

Agency: N/A

Status: Launch Successful

Launch date: Nov. 26, 1965, 2:47 p.m. UTC

Rocket: Diamant A

Launch pad: Brigitte

Location: Interarmy Special Vehicles Test Centre, French Algeria

...

Latest news about this satellite

There are no fresh news available about this satellite. Check back as we update our databases every day.


Newsletter sign-up

Weekly statistics, charts and insights to help you stay on top of the space industry.